STARLINK-4345, 53049

Orbit data source: Space-Track

STARLINK-4345, 53049 is a payload satellite owned by SpaceX/Seattle (US) in SSO that was launched on Mon, 11 Jul 2022 UTC via an FALCON 9 launch vehicle from the Air Force Western Test Range (AFWTR). Payload-class satellites include a variety of spacecraft equipped with specific instruments for various scientific and technological missions. These include communications satellites like Starlink; space stations such as the ISS; scientific satellites like the Hubble; Earth observation satellites from companies like Planet Labs, Umbra, and HawkEye 360; GPS; miniature CubeSats for education and research; and military/defense satellites.

Loading next visibility...
Identifier
53049, 2022-077G
Orbit
SSO
Country
Flag of USUS
Related business
Manufacturer
SpaceX/Seattle
Mission
Operational Commercial Communications
Bus & Motor
STARLINK, Unknown motor
Mass
297 kg wet, ~275 kg dry
Launch date (UTC)
2022-07-11 (3 years ago)
Launch vehicle
FALCON 9
Launch site
Air Force Western Test Range (AFWTR)
Object type
Payload
Rocket body
Debris
Shape & HBR
Box + 1 Pan, 10.1 m
Radar Cross Section
13.562 m², Large (>1 m²)

Expand to show TLE details & history
Last TLE update: 20 hours ago

TLE from 20 hours ago
0 STARLINK-4345
1 53049U 22077G   25348.77954254  .00000370  00000-0  33381-4 0  9996
2 53049  97.6023 167.1003 0002555  66.8653 293.2840 15.01251561188179
Epoch: 2025-12-14T18:42Z
TLE epoch observation values (Epoch: 2025-12-14T18:42:32.475Z)
Latitude
-0.00007°
Longitude
162.77744°
Altitude
565.394 km
Speed
7.579 km/s
True Right ascension
11h 08m 24s
True Declination
0° 00' 00"
Sunlit
Object was in daylight at epoch
Visualization orbit readout
Latitude
Unknown
Longitude
Unknown
Altitude
Unknown
Speed
Unknown
Apparent Right ascension
Unknown
Apparent Declination
Unknown
Sunlit
N/A
Visualization observer readout
Local Sidereal Time
13:20:32
Azimuth
Unknown
Elevation
Unknown
Doppler factor
Unknown
Orbital elements
Apogee altitude
561.808 km
Perigee altitude
558.262 km
Semi-major axis
6,938.172 km
Eccentricity
0.00026
Inclination
97.6023°
RAAN
167.1003°
Arg. of periapsis
66.8653°
True anomaly
293.2571°
Mean anomaly
293.284°
Eccentric anomaly
293.27055°
Mean motion
3.75557 °/min
Orbital period
95.86 mins
BSTAR
0.000033381
Loading maneuver chart data...
Computing Atmospheric mass density...
Loading historical data...
Loading historical data...
Loading historical data...
Loading historical data...
Loading historical data...
Loading historical data...
Loading historical data...

Documentation

Showing up to 5 results
|